Regional Weather Roundup
Issued by NWS Mt. Holly, NJ

Home | Current Version | Previous Version | Text Only | Print | Product List | Glossary On
Versions: 1 2 3 4 5 6 7 8 9 10 11 12 13 14 15 16 17 18 19 20 21 22 23 24 25 26 27 28 29 30 31 32 33 34 35 36 37 38 39 40 41 42 43 44 45 46 47 48 49 50
000
ASUS41 KPHI 272010
RWRPHI

REGIONAL WEATHER ROUNDUP
NATIONAL WEATHER SERVICE MOUNT HOLLY NJ
300 PM EST THU NOV 27 2014

NOTE:  "FAIR" INDICATES FEW OR NO CLOUDS BELOW 12,000 FEET WITH NO
SIGNIFICANT WEATHER AND/OR OBSTRUCTIONS TO VISIBILITY.

 * = STATION DOES NOT REPORT PRECIPITATION (E.G. RAIN, SNOW, ETC.)
        OR FOG.

NJZ015>026-272100-
SOUTHERN NEW JERSEY

CITY           SKY/WX    TMP DP  RH WIND       PRES   REMARKS
POMONA         MOSUNNY   43  31  62 NW14      29.99S
RIO GRANDE*    MOSUNNY   43  28  56 NW10G17   29.99R
MILLVILLE      SUNNY     43  29  57 NW14G21   30.01S
WRIGHTSTOWN    PTSUNNY   38  29  70 NW9       29.98R WCI  32
MOUNT HOLLY    CLOUDY    39  28  64 NW9       30.02R WCI  33
TRENTON        CLOUDY    36  27  69 NW9       30.01R WCI  29

$$
NJZ001>014-272100-
NORTHERN NEW JERSEY

CITY           SKY/WX    TMP DP  RH WIND       PRES   REMARKS
SUSSEX         PTSUNNY   34  26  72 NW7       29.98R WCI  28
ANDOVER*         N/A     34  28  79 N5        29.98R WCI  30
MORRISTOWN     CLOUDY    37  30  75 N5        30.00R WCI  34
NEWARK         CLOUDY    38  32  79 W9        29.99S WCI  31
TETERBORO      CLOUDY    38  30  73 NW6       29.98R WCI  33
CALDWELL       CLOUDY    35  28  75 NW8       29.99R WCI  29
SOMERVILLE     CLOUDY    37  29  72 NW8       29.99R WCI  31
ALLAIRE*       CLOUDY    37  28  70 NW12      29.99R WCI  30
TOMS RIVER*    CLOUDY    39  30  70 NW5       30.00S

$$
PAZ043-044-047-054-055-060>062-066>071-272100-
EASTERN PENNSYLVANIA

CITY           SKY/WX    TMP DP  RH WIND       PRES   REMARKS
PHILADELPHIA   PTSUNNY   41  28  60 NW12      30.03R
NORTH PHILA    CLOUDY    40  26  57 NW10      30.03R WCI  33
BLUE BELL      CLOUDY    37  30  75 CALM      30.01S
DOYLESTOWN     CLOUDY    35  28  75 NW7       30.00S WCI  29
QUAKERTOWN*    CLOUDY    36  28  75 W3        30.01R
POTTSTOWN      CLOUDY    36  28  73 NW6       30.03R WCI  31
LANCASTER      PTSUNNY   36  28  73 W7        30.04R WCI  30
COATESVILLE    CLOUDY    36  28  75 NW10      30.02S WCI  28
READING        CLOUDY    37  27  67 W9        30.03R WCI  30
ALLENTOWN      PTSUNNY   35  26  69 W7        30.01R WCI  29
MOUNT POCONO   PTSUNNY   29  22  75 NW9       29.92R WCI  20
HAZLETON       CLOUDY    32  28  86 W5        29.99R WCI  27
WILKES BARRE   CLOUDY    33  24  69 NW13      29.99R WCI  24

$$
DEZALL-MDZ008-012-015-019-020-272100-
DELAWARE AND EASTERN MARYLAND

CITY           SKY/WX    TMP DP  RH WIND       PRES   REMARKS
WILMINGTON     MOSUNNY   41  29  62 NW12      30.04S
DOVER          PTSUNNY   42  30  62 NW13      30.00S
GEORGETOWN     PTSUNNY   43  31  62 VRB7      30.03R
EASTON         PTSUNNY   43  34  70 NW3       30.07R
PATUXENT       CLOUDY    41  35  79 NW9       30.05R
OCEAN CITY     CLOUDY    44  33  65 NW14      30.02R
WALLOPS ISLAND LGT RAIN  42  39  89 NW7       30.03R
CAMBRIDGE      MOSUNNY   43  32  65 NW7       30.04R
SALISBURY      CLOUDY    45  33  63 NW9       30.03R

$$
PAZ001-021-NYZ056-072-MDZ011-DCZ001-272100-
OTHER NEARBY LOCATIONS

CITY           SKY/WX    TMP DP  RH WIND       PRES   REMARKS
HARRISBURG     PTSUNNY   37  28  70 W6        30.05R WCI  32
STATE COLLEGE  PTSUNNY   32  30  93 CALM      30.02R
WILLIAMSPORT   CLOUDY    35  27  72 W7        30.02S WCI  29
BINGHAMTON     CLOUDY    27  23  85 NW8       29.96R WCI  19
NEW YORK CITY  CLOUDY    37  31  78 CALM      30.01R
BALTIMORE      PTSUNNY   43  28  55 NW9       30.04R
WASHINGTON DC  MOSUNNY   48  26  42 N14       30.05S

$$


USA.gov is the U.S. government's official web portal to all federal, state and local government web resources and services.